Hourly Data Report for September 15, 2017

All times are specified in Local Standard Time (LST). Add 1 hour to adjust for Daylight Saving Time where and when it is observed.

MISCOU ISLAND (AUT)
NEW BRUNSWICK

48°00'32.002" N
64°29'39.008" W
4.00 m
8103050
71719
WMI

Download Data

Hourly Data (September 2017)
Hourly Data Report for September 15, 2017
Temp Definition
°C
Dew Point Temp Definition
°C
Rel Hum Definition
%
Wind Dir Definition
10's deg

Wind Spd Definition
km/h
Visibility Definition
km
Stn Press Definition
kPa
Hmdx Definition


Wind Chill Definition


Weather Definition


TIME
00:00 10.3 7.8 84 16 5   101.39     LegendNANA
01:00 9.1 7.7 91 32 5   101.48     LegendNANA
02:00 12.9 9.3 79 34 11   101.53     LegendNANA
03:00 10.8 7.1 78 29 8   101.59     LegendNANA
04:00 12.4 6.8 69 32 16   101.65     LegendNANA
05:00 12.5 7.0 69 32 20   101.74     LegendNANA
06:00 12.4 6.9 69 33 18   101.81     LegendNANA
07:00 12.7 6.9 68 34 17   101.87     LegendNANA
08:00 13.5 7.8 69 35 19   101.96     LegendNANA
09:00 14.2 7.9 66 35 16   102.06     LegendNANA
10:00 14.6 7.7 63 35 12   102.09     LegendNANA
11:00 14.8 7.8 63 3 5   102.08     LegendNANA
12:00 15.1 7.7 61 7 8   102.06     LegendNANA
13:00 15.9 8.4 61 11 9   102.03     LegendNANA
14:00 15.6 8.1 61 13 13   101.99     LegendNANA
15:00 15.6 8.2 62 14 14   101.99     LegendNANA
16:00 15.2 9.9 70 15 14   101.98     LegendNANA
17:00 15.1 9.7 70 16 16   101.99     LegendNANA
18:00 14.2 10.4 78 17 16   102.01     LegendNANA
19:00 13.7 11.1 84 17 13   102.01     LegendNANA
20:00 14.0 11.4 84 16 12   102.01     LegendNANA
21:00 13.4 11.4 88 18 12   101.99     LegendNANA
22:00 11.8 10.3 91 20 5   101.94     LegendNANA
23:00 10.1 8.8 92 22 10   101.91     LegendNANA

Notes on Data Quality.

Legend

  • E = Estimated
  • M = Missing
  • NA = Not Available
  • ‡ = Partner data that is not subject to review by the National Climate Archives
Date modified: